This is the latest recevied weather packets stored in our database for station/object K4AGR-13. If no packets are shown the sender has not sent any weather packets the latest 10 day(s).
| Time | Temp. | Humidity | Pressure | Rain* | Wind** | Luminosity | Snow |
|---|---|---|---|---|---|---|---|
| 1777800919 | 8.33° C | 89% | 1018.8 hPa | 0 mm | - | 0 W/m² | - |
| 1777800615 | 8.33° C | 90% | 1018.7 hPa | 0 mm | - | 0 W/m² | - |
| 1777800311 | 8.33° C | 89% | 1018.9 hPa | 0 mm | - | 0 W/m² | - |
| 1777800008 | 8.33° C | 89% | 1018.7 hPa | 0 mm | - | 0 W/m² | - |
| 1777799702 | 8.33° C | 90% | 1018.6 hPa | 0 mm | - | 0 W/m² | - |
| 1777799401 | 8.33° C | 90% | 1018.7 hPa | 0 mm | - | 0 W/m² | - |
| 1777798791 | 8.33° C | 91% | 1018.8 hPa | 0 mm | - | 0 W/m² | - |
| 1777798488 | 8.33° C | 91% | 1018.6 hPa | 0 mm | - | 0 W/m² | - |
| 1777797580 | 7.78° C | 91% | 1018.3 hPa | 0 mm | - | 0 W/m² | - |
| 1777797277 | 8.33° C | 91% | 1018.3 hPa | 0 mm | - | 0 W/m² | - |
| 1777796973 | 7.78° C | 90% | 1018.6 hPa | 0 mm | - | 0 W/m² | - |
| 1777796671 | 8.33° C | 90% | 1018.5 hPa | 0 mm | - | 0 W/m² | - |
| 1777796367 | 8.33° C | 90% | 1018.5 hPa | 0 mm | - | 0 W/m² | - |
| 1777796062 | 8.33° C | 89% | 1018.6 hPa | 0 mm | - | 0 W/m² | - |
| 1777795759 | 8.89° C | 89% | 1018.5 hPa | 0 mm | - | 0 W/m² | - |
| 1777795456 | 8.89° C | 89% | 1018.3 hPa | 0 mm | - | 0 W/m² | - |
| 1777795152 | 8.89° C | 88% | 1018.5 hPa | 0 mm | - | 0 W/m² | - |
| 1777794848 | 8.89° C | 86% | 1018.4 hPa | 0 mm | - | 0 W/m² | - |
| 1777793937 | 9.44° C | 82% | 1018.1 hPa | 0 mm | - | 0 W/m² | - |
| 1777793634 | 9.44° C | 83% | 1018.2 hPa | 0 mm | - | 0 W/m² | - |
| 1777793332 | 9.44° C | 83% | 1018 hPa | 0 mm | - | 0 W/m² | - |
| 1777793029 | 10° C | 83% | 1017.9 hPa | 0 mm | - | 0 W/m² | - |
| 1777792725 | 10° C | 80% | 1018.1 hPa | 0 mm | - | 0 W/m² | - |
| 1777792423 | 10.56° C | 78% | 1018 hPa | 0 mm | - | 0 W/m² | - |
| 1777792119 | 10° C | 79% | 1017.9 hPa | 0 mm | - | 0 W/m² | - |
* Rain latest hour (hover to see other rain measurements)
** Current wind speed in m/s (hover to see current wind gust speed)